Weather History for The Dalles, OR

Change the Weather History Date:

Monday, July 23, 2012

  Actual Average Record
Temperature  
Mean Temperature 68 °F -  
Max Temperature 80 °F 89 °F 108 °F (2006)
Min Temperature 57 °F 60 °F 45 °F (1964)
Cooling Degree Days 4    
Growing Degree Days 18 (Base 50)    
Moisture  
Dew Point 45 °F    
Average Humidity 45    
Maximum Humidity 61    
Minimum Humidity 29    
Precipitation  
Precipitation 0.00 in - - ()
Sea Level Pressure  
Sea Level Pressure 30.11 in    
Wind  
Wind Speed 13 mph (NW)    
Max Wind Speed 24 mph    
Max Gust Speed 30 mph    
Visibility 10 miles    
Events      
Averages and records for this station are not official NWS values.
T = Trace of Precipitation, MM = Missing Value Source: NWS Daily Summary

Daily Weather History Graph

Daily Weather History Graph

Search for Another Location

Airport:

Trip Planner

Search our weather history database for the weather conditions in past years. The results will help you decide how hot, cold, wet, or windy it might be!

Date:

Astronomy

Jul. 23, 2012 Rise Set
Actual Time 5:38 AM PDT 8:42 PM PDT
Civil Twilight 5:03 AM PDT 9:18 PM PDT
Nautical Twilight 4:17 AM PDT 10:03 PM PDT
Astronomical Twilight 3:22 AM PDT 10:58 PM PDT
Moon 10:54 AM PDT (7/23) 10:39 PM PDT (7/23)
Length of Visible Light 16h 14m
Length of Day
15h 04m
Waxing Crescent, 23% of the Moon is Illuminated
Jul 23
Waxing Crescent
Jul 26
First Quarter
Aug 1
Full
Aug 9
Last Quarter
Aug 17
New

Hourly Weather History & Observations

Time (PDT) Temp. Dew Point Humidity Pressure Visibility Wind Dir Wind Speed Gust Speed Precip Events Conditions
12:53 AM 60.1 °F 43.0 °F 53% 30.11 in 10.0 mi West 16.1 mph 24.2 mph N/A   Clear
1:53 AM 60.1 °F 42.1 °F 51% 30.14 in 10.0 mi West 10.4 mph - N/A   Overcast
2:53 AM 60.1 °F 42.1 °F 51% 30.14 in 10.0 mi West 11.5 mph 21.9 mph N/A   Clear
3:53 AM 57.9 °F 43.0 °F 58% 30.15 in 10.0 mi WNW 13.8 mph 19.6 mph N/A   Clear
4:53 AM 57.0 °F 43.0 °F 59% 30.17 in 10.0 mi West 9.2 mph - N/A   Clear
5:53 AM 57.9 °F 42.1 °F 56% 30.18 in 10.0 mi Calm Calm - N/A   Clear
6:53 AM 59.0 °F 42.1 °F 53% 30.19 in 10.0 mi West 4.6 mph - N/A   Clear
7:53 AM 63.0 °F 42.1 °F 46% 30.19 in 10.0 mi WNW 9.2 mph - N/A   Clear
8:53 AM 64.9 °F 42.1 °F 43% 30.19 in 10.0 mi West 17.3 mph - N/A   Clear
9:53 AM 68.0 °F 44.1 °F 42% 30.19 in 10.0 mi WNW 16.1 mph - N/A   Clear
10:53 AM 68.0 °F 44.1 °F 42% 30.18 in 10.0 mi NNW 24.2 mph 29.9 mph N/A   Clear
11:53 AM 70.0 °F 44.1 °F 39% 30.16 in 10.0 mi NNW 19.6 mph 26.5 mph N/A   Clear
12:53 PM 73.0 °F 45.0 °F 37% 30.14 in 10.0 mi NNW 18.4 mph - N/A   Clear
1:53 PM 75.9 °F 45.0 °F 33% 30.12 in 10.0 mi NW 15.0 mph 21.9 mph N/A   Clear
2:53 PM 79.0 °F 46.0 °F 31% 30.10 in 10.0 mi NW 16.1 mph - N/A   Clear
3:53 PM 79.0 °F 46.0 °F 31% 30.07 in 10.0 mi NNW 13.8 mph - N/A   Clear
4:53 PM 80.1 °F 45.0 °F 29% 30.05 in 10.0 mi NNW 13.8 mph 19.6 mph N/A   Clear
5:53 PM 79.0 °F 46.0 °F 31% 30.03 in 10.0 mi West 18.4 mph 24.2 mph N/A   Clear
6:53 PM 77.0 °F 48.0 °F 36% 30.03 in 10.0 mi WNW 15.0 mph 21.9 mph N/A   Clear
7:53 PM 73.0 °F 50.0 °F 44% 30.03 in 10.0 mi NW 11.5 mph - N/A   Clear
8:53 PM 70.0 °F 48.9 °F 47% 30.03 in 10.0 mi WNW 10.4 mph - N/A   Clear
9:53 PM 68.0 °F 50.0 °F 52% 30.05 in 10.0 mi NW 11.5 mph - N/A   Clear
10:53 PM 66.9 °F 51.1 °F 57% 30.05 in 10.0 mi NW 13.8 mph - N/A   Clear
11:53 PM 64.9 °F 51.1 °F 61% 30.05 in 10.0 mi NW 10.4 mph - N/A   Clear